Previsão horária em Ploszyce

Hoje, 3 Março, Quarta-feira

Tempo Temperatura Precipitação Vento Pressão Humidade
00:00 +1°C° 0 mm 2 m/s 764 mmHg 91%
01:00 +1°C° 0 mm 1 m/s 764 mmHg 90%
02:00 +1°C° 0 mm 1 m/s 764 mmHg 88%
03:00 +1°C° 0 mm 1 m/s 763 mmHg 86%
04:00 +1°C° 0 mm 1 m/s 763 mmHg 84%
05:00 +1°C° 0 mm 1 m/s 763 mmHg 83%
06:00 +2°C° 0 mm 1 m/s 763 mmHg 81%
07:00 +2°C° 0 mm 1 m/s 763 mmHg 79%
08:00 +3°C° 0 mm 1 m/s 763 mmHg 73%
09:00 +5°C° 0 mm 1 m/s 762 mmHg 66%
10:00 +5°C° 0 mm 2 m/s 762 mmHg 59%
11:00 +5°C° 0 mm 3 m/s 761 mmHg 59%
12:00 +7°C° 0 mm 3 m/s 761 mmHg 59%
13:00 +7°C° 0 mm 4 m/s 760 mmHg 58%
14:00 +7°C° 0 mm 4 m/s 759 mmHg 62%
15:00 +8°C° 0 mm 3 m/s 758 mmHg 65%
16:00 +8°C° 0 mm 3 m/s 757 mmHg 68%
17:00 +5°C° 0 mm 3 m/s 757 mmHg 74%
18:00 +4°C° 0 mm 3 m/s 756 mmHg 80%
19:00 +3°C° 0 mm 3 m/s 756 mmHg 85%
20:00 +2°C° 0 mm 3 m/s 755 mmHg 86%
21:00 +2°C° 0 mm 3 m/s 754 mmHg 87%
22:00 +2°C° 0 mm 3 m/s 754 mmHg 89%
23:00 +2°C° 0 mm 3 m/s 753 mmHg 89%

Amanhã, 4 Março, Quinta-feira

Tempo Temperatura Precipitação Vento Pressão Humidade
00:00 +1°C° 0 mm 3 m/s 753 mmHg 90%
01:00 +1°C° 0 mm 3 m/s 752 mmHg 90%
02:00 +1°C° 0 mm 3 m/s 751 mmHg 91%
03:00 0°C° 0 mm 4 m/s 750 mmHg 92%
04:00 0°C° 0 mm 4 m/s 749 mmHg 93%
05:00 0°C° 0 mm 4 m/s 749 mmHg 93%
06:00 +1°C° 0 mm 4 m/s 749 mmHg 93%
07:00 +1°C° 0 mm 4 m/s 748 mmHg 94%
08:00 +2°C° 0 mm 5 m/s 748 mmHg 90%
09:00 +2°C° 0 mm 5 m/s 748 mmHg 85%
10:00 +3°C° 0 mm 6 m/s 748 mmHg 81%
11:00 +2°C° 0 mm 6 m/s 748 mmHg 80%
12:00 +2°C° 0 mm 6 m/s 748 mmHg 79%
13:00 +2°C° 0 mm 6 m/s 748 mmHg 78%
14:00 +2°C° 0 mm 5 m/s 748 mmHg 80%
15:00 +1°C° 0 mm 5 m/s 748 mmHg 82%
16:00 +1°C° 0 mm 4 m/s 748 mmHg 84%
17:00 0°C° 0.2 mm 4 m/s 748 mmHg 83%
18:00 -1°C° 0.2 mm 4 m/s 749 mmHg 82%
19:00 -1°C° 0.2 mm 4 m/s 749 mmHg 81%
20:00 -2°C° 0 mm 4 m/s 749 mmHg 80%
21:00 -2°C° 0 mm 4 m/s 750 mmHg 79%
22:00 -2°C° 0 mm 4 m/s 750 mmHg 78%
23:00 -3°C° 0 mm 4 m/s 750 mmHg 79%

Depois de amanhã, 5 Março, Sexta-feira

Tempo Temperatura Precipitação Vento Pressão Humidade
00:00 -3°C° 0 mm 4 m/s 750 mmHg 81%
01:00 -4°C° 0 mm 3 m/s 751 mmHg 82%
02:00 -4°C° 0 mm 3 m/s 751 mmHg 81%
03:00 -4°C° 0 mm 3 m/s 751 mmHg 81%
04:00 -4°C° 0 mm 3 m/s 751 mmHg 81%
05:00 -4°C° 0 mm 3 m/s 751 mmHg 79%
06:00 -4°C° 0 mm 3 m/s 752 mmHg 78%
07:00 -2°C° 0 mm 3 m/s 752 mmHg 76%
08:00 -2°C° 0 mm 4 m/s 752 mmHg 66%
09:00 -1°C° 0 mm 4 m/s 753 mmHg 55%
10:00 0°C° 0 mm 5 m/s 753 mmHg 45%
11:00 0°C° 0 mm 5 m/s 753 mmHg 43%
12:00 +1°C° 0 mm 6 m/s 753 mmHg 42%
13:00 +1°C° 0 mm 6 m/s 754 mmHg 40%
14:00 +1°C° 0 mm 5 m/s 754 mmHg 41%
15:00 0°C° 0 mm 5 m/s 754 mmHg 41%
16:00 0°C° 0 mm 5 m/s 754 mmHg 41%
17:00 -2°C° 0 mm 4 m/s 755 mmHg 45%
18:00 -2°C° 0 mm 3 m/s 756 mmHg 49%
19:00 -4°C° 0 mm 3 m/s 756 mmHg 53%
20:00 -3°C° 0 mm 2 m/s 757 mmHg 54%
21:00 -3°C° 0 mm 2 m/s 757 mmHg 55%
22:00 -4°C° 0 mm 2 m/s 758 mmHg 56%
23:00 -4°C° 0 mm 2 m/s 758 mmHg 57%

6 Março, Sábado

Tempo Temperatura Precipitação Vento Pressão Humidade
00:00 -3°C° 0 mm 2 m/s 758 mmHg 58%
01:00 -3°C° 0 mm 2 m/s 759 mmHg 60%
02:00 -3°C° 0 mm 2 m/s 759 mmHg 65%
03:00 -4°C° 0 mm 3 m/s 759 mmHg 70%
04:00 -4°C° 0 mm 3 m/s 759 mmHg 75%
05:00 -5°C° 0 mm 3 m/s 759 mmHg 78%
06:00 -4°C° 0 mm 2 m/s 760 mmHg 81%
07:00 -4°C° 0 mm 2 m/s 760 mmHg 85%
08:00 -4°C° 0 mm 3 m/s 761 mmHg 73%
09:00 -1°C° 0 mm 3 m/s 761 mmHg 62%
10:00 0°C° 0 mm 3 m/s 761 mmHg 50%
11:00 -1°C° 0 mm 4 m/s 761 mmHg 48%
12:00 0°C° 0 mm 4 m/s 761 mmHg 45%
13:00 0°C° 0 mm 4 m/s 761 mmHg 42%
14:00 0°C° 0 mm 4 m/s 760 mmHg 44%
15:00 0°C° 0 mm 4 m/s 760 mmHg 46%
16:00 0°C° 0 mm 4 m/s 760 mmHg 48%
17:00 -1°C° 0 mm 4 m/s 759 mmHg 53%
18:00 -2°C° 0 mm 4 m/s 759 mmHg 57%
19:00 -3°C° 0 mm 4 m/s 759 mmHg 61%
20:00 -4°C° 0 mm 5 m/s 758 mmHg 60%
21:00 -4°C° 0 mm 6 m/s 758 mmHg 58%
22:00 -4°C° 0 mm 6 m/s 757 mmHg 57%
23:00 -4°C° 0 mm 7 m/s 757 mmHg 57%

7 Março, Domingo

Tempo Temperatura Precipitação Vento Pressão Humidade
00:00 -3°C° 0 mm 7 m/s 756 mmHg 57%
01:00 -4°C° 0 mm 8 m/s 756 mmHg 57%
02:00 -4°C° 0 mm 8 m/s 755 mmHg 61%
03:00 -4°C° 0 mm 8 m/s 754 mmHg 65%
04:00 -4°C° 0 mm 8 m/s 753 mmHg 69%
05:00 -4°C° 0.1 mm 8 m/s 753 mmHg 74%
06:00 -4°C° 0.1 mm 8 m/s 753 mmHg 80%
07:00 -4°C° 0.1 mm 8 m/s 753 mmHg 86%
08:00 -2°C° 0 mm 8 m/s 753 mmHg 82%
09:00 -1°C° 0 mm 9 m/s 753 mmHg 77%
10:00 -1°C° 0 mm 9 m/s 753 mmHg 73%
11:00 0°C° 0 mm 9 m/s 752 mmHg 73%
12:00 0°C° 0 mm 8 m/s 752 mmHg 73%
13:00 0°C° 0 mm 8 m/s 752 mmHg 72%
14:00 0°C° 0 mm 8 m/s 752 mmHg 75%
15:00 -1°C° 0 mm 8 m/s 752 mmHg 78%
16:00 -1°C° 0 mm 8 m/s 752 mmHg 80%
17:00 -1°C° 0.1 mm 7 m/s 752 mmHg 84%
18:00 -2°C° 0.1 mm 6 m/s 752 mmHg 87%
19:00 -2°C° 0.1 mm 6 m/s 752 mmHg 90%
20:00 -2°C° 0.4 mm 5 m/s 752 mmHg 92%
21:00 -3°C° 0.4 mm 4 m/s 752 mmHg 93%
22:00 -2°C° 0.4 mm 3 m/s 752 mmHg 94%
23:00 -3°C° 0.1 mm 2 m/s 752 mmHg 94%

8 Março, Segunda-feira

Tempo Temperatura Precipitação Vento Pressão Humidade
00:00 -3°C° 0.1 mm 2 m/s 752 mmHg 94%
01:00 -1°C° 0.1 mm 1 m/s 752 mmHg 94%
02:00 -1°C° 0.1 mm 1 m/s 752 mmHg 92%
03:00 -1°C° 0.1 mm 1 m/s 752 mmHg 91%
04:00 -1°C° 0.1 mm 1 m/s 752 mmHg 89%
05:00 -1°C° 0 mm 1 m/s 752 mmHg 86%
06:00 -1°C° 0 mm 1 m/s 753 mmHg 83%
07:00 -1°C° 0 mm 1 m/s 753 mmHg 80%
08:00 -2°C° 0 mm 2 m/s 753 mmHg 73%
09:00 -2°C° 0 mm 2 m/s 753 mmHg 66%
10:00 -1°C° 0 mm 3 m/s 754 mmHg 59%
11:00 -2°C° 0 mm 4 m/s 754 mmHg 58%
12:00 -1°C° 0 mm 4 m/s 754 mmHg 57%
13:00 -1°C° 0 mm 5 m/s 754 mmHg 56%
14:00 -2°C° 0 mm 5 m/s 754 mmHg 56%
15:00 -2°C° 0 mm 5 m/s 754 mmHg 57%
16:00 -2°C° 0 mm 5 m/s 755 mmHg 57%
17:00 -3°C° 0 mm 4 m/s 755 mmHg 62%
18:00 -5°C° 0 mm 4 m/s 756 mmHg 66%
19:00 -6°C° 0 mm 3 m/s 756 mmHg 71%
20:00 -6°C° 0 mm 3 m/s 757 mmHg 70%
21:00 -6°C° 0 mm 3 m/s 757 mmHg 69%
22:00 -6°C° 0 mm 3 m/s 758 mmHg 69%
23:00 -6°C° 0 mm 2 m/s 758 mmHg 68%
Mostrar mais

Necessitamos do seu Consentimento

A Meteoprog e os seus Fornecedores de Serviços podem armazenar e aceder a dados pessoais como cookies, identificadores do dispositivo ou outras tecnologias semelhantes existentes no seu dispositivo e processar estes dados para personalizar conteúdos e anúncios, assim como funcionalidades nas redes sociais e análise de tráfego.

  • Armazenar e/ou aceder a informações no seu dispositivo

    Os cookies, identificadores do dispositivo ou outras informações podem ser armazenados ou acedidos no seu dispositivo, para os fins acima indicados.

  • Anúncios e conteúdos personalizados, medição de anúncios e conteúdos, dados sobre o público-alvo e desenvolvimento de produtos

    Os anúncios e os conteúdos podem ser personalizados com base num perfil. Podem ser adicionados dados adicionais para uma maior personalização dos anúncios e dos conteúdos. A eficácia dos anúncios e dos conteúdos pode ser medida. Podem ser obtidas informações sobre o público que visualizou os anúncios e os conteúdos. Estes dados podem ser usados para desenvolver ou melhorar sistemas, softwares ou a experiência do utilizador.

Ao clicar em "Eu concordo”, permitirá o uso de cookies, identificadores do dispositivo e web beacons mencionados ou outras tecnologias semelhantes. As configurações do navegador do seu dispositivo podem ser alteradas.

Para certos fins, podem ser invocados interesses legítimos ao invés de consentimento. Pode ler mais informação sobre este assunto na nossa Política de Privacidade e Cookies.